« Back
NWS Peachtree City, Ga » Text Product » GA Regional Weather Roundup


Printer-friendly Version
Current Version              Previous Versions:   1  2  3  4  5  6  7  8  9  

Regional Weather Roundup

631
ASUS42 KFFC 010103
RWRGA
WEATHER ROUNDUP FOR GEORGIA
NATIONAL WEATHER SERVICE PEACHTREE CITY GA
900 PM EDT TUE JUN 30 2015

NOTE: "FAIR" INDICATES FEW OR NO CLOUDS BELOW 12,000 FEET WITH NO
SIGNIFICANT WEATHER AND/OR OBSTRUCTIONS TO VISIBILITY.

* = USE WITH CAUTION. THE STATIONS MARKED WITH AN ASTERISK MAY NOT
REPORT WEATHER SUCH AS PRECIPITATION, FOG, OR THUNDER AND ARE NOT
QUALITY CONTROLLED BY NWS.

THE REMARK "TC" DENOTES TEMPERATURE READING IN DEGREES CELSIUS.

GAZ001>058-010200-
NORTH GEORGIA

CITY           SKY/WX    TMP DP  RH WIND       PRES   REMARKS
ATLANTA        MOCLDY    80  63  55 W10       29.99R
ATHENS         CLEAR     71  68  90 S5        29.97R
CHAMBLEE       PTCLDY    81  65  58 W8        29.98R
PEACHTREE CITY PTCLDY    78  67  68 W3        30.00R
ROME           PTCLDY    79  67  66 W3        29.96R
WEST ATLANTA   CLEAR     80  64  58 SW7       29.98R
GAINESVILLE    CLOUDY    77  67  71 SW3       30.00R
CARTERSVILLE   PTCLDY    73  70  90 CALM      29.98R


CITY           SKY/WX    TMP DP  RH WIND       PRES   REMARKS
LAWRENCEVILLE* MOCLDY    81  61  50 SW8       29.96R
MARIETTA       PTCLDY    80  65  61 SW9       29.99R
KENNESAW*      PTCLDY    79  66  65 W7        30.00R
$$

GAZ059>098-102>109-010200-
CENTRAL GEORGIA

CITY           SKY/WX    TMP DP  RH WIND       PRES   REMARKS
AUGUSTA-BUSH   CLOUDY    74  70  87 W6        29.97R
AUGUSTA-DANIEL HVY RAIN  74  68  81 SW9       29.96S
COLUMBUS       CLOUDY    78  64  61 W7        30.01R
MACON          PTCLDY    75  69  81 SW6       29.99R
ROBINS AFB     PTCLDY    75  70  83 S7        29.98S


CITY           SKY/WX    TMP DP  RH WIND       PRES   REMARKS
$$

GAZ099>101-110>166-010200-
SOUTH GEORGIA

CITY           SKY/WX    TMP DP  RH WIND       PRES   REMARKS
SAVANNAH       MOCLDY    75  66  73 SW5       30.01R
VALDOSTA       LGT RAIN  71  70  96 SW5       30.03S
ALMA           MOCLDY    73  70  90 CALM      30.01R
ST SIMONS      PTCLDY    76  70  82 SW12      30.01R
FT STEWART     MOCLDY    74  70  86 S5        29.98S
ALBANY         CLOUDY    74  70  87 SW9       30.04R
HUNTER AFB     MOCLDY    74  68  82 SW2       29.98R
MOODY AFB      CLOUDY    74  71  91 S2        30.00F


CITY           SKY/WX    TMP DP  RH WIND       PRES   REMARKS
$$



USA.gov is the U.S. government's official web portal to all federal, state and local government web resources and services.